Location: Rodanthe
(35.5920°N, 75.4670°W)
Time: 15:55:57
(UTC-04:00)

ISS - All Passes

Search period start: 23 October 2014 00:00
Search period end: 02 November 2014 00:00
Orbit: 412 x 416 km, 51.6° (Epoch: 23 October)

Date Brightness Start Highest point End Pass type
(mag) Time Alt. Az. Time Alt. Az. Time Alt. Az.
23 Oct - 12:23:31 10° S 12:26:05 21° SE 12:28:39 10° E daylight
23 Oct - 13:59:35 10° WSW 14:02:37 32° NW 14:05:40 10° NNE daylight
23 Oct - 18:54:59 10° N 18:56:27 12° NNE 18:57:55 10° NE visible
23 Oct - 20:30:17 10° NW 20:33:37 78° NE 20:36:57 10° SE visible
24 Oct - 11:36:12 10° SE 11:37:07 11° SE 11:38:02 10° ESE daylight
24 Oct - 13:10:07 10° WSW 13:13:24 59° NW 13:16:42 10° NE daylight
24 Oct - 14:49:53 10° NW 14:50:41 11° NNW 14:51:29 10° N daylight
24 Oct - 19:41:14 10° NW 19:44:25 40° NE 19:47:36 10° ESE visible
24 Oct - 21:18:43 10° W 21:20:51 16° SW 21:22:59 10° SSW visible
25 Oct - 12:20:55 10° SW 12:24:13 70° SE 12:27:32 10° NE daylight
25 Oct - 13:59:11 10° WNW 14:01:13 15° NNW 14:03:15 10° N daylight
25 Oct - 18:52:18 10° NNW 18:55:06 24° NNE 18:57:54 10° E visible
25 Oct - 20:28:49 10° WNW 20:31:48 30° SW 20:34:45 10° SSE visible
26 Oct - 11:32:01 10° SSW 11:35:03 34° SE 11:38:05 10° ENE daylight
26 Oct - 13:09:05 10° W 13:11:46 22° NNW 13:14:29 10° NNE daylight
26 Oct - 18:03:30 10° NNW 18:05:40 16° NNE 18:07:50 10° ENE daylight
26 Oct - 19:39:19 10° NW 19:42:37 62° SW 19:45:54 10° SE visible
27 Oct - 10:43:36 10° S 10:45:54 18° SE 10:48:12 10° E daylight
27 Oct - 12:19:15 10° WSW 12:22:21 37° NW 12:25:29 10° NNE daylight
27 Oct - 17:15:01 10° N 17:16:06 11° NNE 17:17:11 10° NE daylight
27 Oct - 18:50:00 10° NW 18:53:20 65° NE 18:56:37 10° ESE visible
28 Oct - 11:29:40 10° SW 11:32:58 70° NW 11:36:17 10° NE daylight
28 Oct - 13:08:55 10° NW 13:10:09 12° NNW 13:11:24 10° N daylight
28 Oct - 18:00:49 10° NNW 18:03:55 35° NE 18:07:00 10° ESE daylight
28 Oct - 19:37:58 10° W 19:40:24 19° SW 19:42:49 10° S visible
29 Oct - 10:40:21 10° SW 10:43:36 57° SE 10:46:52 10° NE daylight
29 Oct - 12:18:17 10° WNW 12:20:31 17° NNW 12:22:45 10° NNE daylight
29 Oct - 17:11:44 10° NNW 17:14:22 21° NNE 17:17:01 10° E daylight
29 Oct - 18:48:02 10° WNW 18:51:07 36° SW 18:54:12 10° SSE visible
30 Oct - 09:51:23 10° SSW 09:54:15 28° SE 09:57:09 10° ENE daylight
30 Oct - 11:28:04 10° W 11:30:54 25° NNW 11:33:44 10° NNE daylight
30 Oct - 16:22:48 10° N 16:24:43 14° NNE 16:26:38 10° ENE daylight
30 Oct - 17:58:24 10° NW 18:01:44 76° SW 18:05:02 10° SE daylight
31 Oct - 09:03:00 10° SSE 09:04:56 15° SE 09:06:51 10° E daylight
31 Oct - 10:38:07 10° WSW 10:41:18 43° NW 10:44:30 10° NE daylight
31 Oct - 15:34:36 10° NNE 15:34:56 10° NNE 15:35:16 10° NNE daylight
31 Oct - 17:08:57 10° NW 17:12:13 54° NE 17:15:28 10° ESE daylight
31 Oct - 18:47:12 10° WSW 18:48:31 12° SW 18:49:49 10° SSW visible
01 Nov - 09:48:25 10° SW 09:51:44 86° NW 09:55:04 10° NE daylight
01 Nov - 11:27:15 10° NW 11:28:50 13° NNW 11:30:25 10° N daylight
01 Nov - 16:19:37 10° NNW 16:22:35 30° NE 16:25:33 10° E daylight
01 Nov - 17:56:27 10° WNW 17:59:08 23° SW 18:01:48 10° S daylight
